[[[{"header":{"parameterUnit":"kt","parameterCategory":2,"dx":1,"dy":1,"la1":30.253999710083008,"la2":30.299108505249023,"lo1":-89.0895004272461,"lo2":-89.04439544677734,"nx":28,"ny":28,"refTime":"2022-09-27T15:00:00:Z","depth":0,"parameterNumber":1,"parameterNumberName":"U-component_of_WINDS"},"data":[-4.8407,-4.8562,-4.8548,-4.8718,-4.8733,-4.8846,-4.8882,-4.8926,-4.8957,-4.9088,-4.9161,-4.9161,-4.9185,-4.9267,-4.9343,-4.9341,-4.9376,-4.944,-4.9427,-4.9153,-4.9114,-4.9077,-4.9041,-4.9447,-4.9447,-4.9714,-4.9717,-4.9719,-4.8204,-4.8222,-4.8307,-4.8381,-4.8454,-4.8383,-4.8435,-4.8501,-4.8603,-4.8642,-4.8713,-4.8827,-4.8915,-4.8917,-4.8998,-4.9068,-4.904,-4.9092,-4.9088,-4.9093,-4.8798,-4.876,-4.9113,-4.9113,-4.9113,-4.9113,-4.9113,-4.9113,-4.783,-4.7924,-4.796,-4.8053,-4.8086,-4.8135,-4.8222,-4.8221,-4.8303,-4.8389,-4.8354,-4.847,-4.8505,-4.8597,-4.8623,-4.8711,-4.8652,-4.8704,-4.8717,-4.8732,-4.8751,-4.8369,-4.8724,-4.8723,-4.8722,-4.8721,-4.872,0,-4.7553,-4.7535,-4.7617,-4.7695,-4.7762,-4.782,-4.7871,-4.7924,-4.788,-4.7951,-4.8051,-4.8106,-4.8214,-4.8306,-4.8379,-4.8396,-4.8331,-4.8321,-4.8358,-4.8379,-4.8387,-4.8386,-4.7908,-4.8313,-4.8309,-4.8306,-4.8304,-4.8303,-4.7177,-4.7288,-4.7319,-4.7379,-4.7404,-4.75,-4.7554,-4.7507,-4.7567,-4.7622,-4.7706,-4.7797,-4.7869,-4.8031,-4.8028,-4.8109,-4.8078,-4.8234,-4.809,-4.8104,-4.8083,-4.8079,-4.809,-4.8265,-4.827,-4.8274,-4.8277,0,-4.6967,-4.6944,-4.7111,-4.7132,-4.714,-4.7258,-4.7275,-4.7366,-4.7355,-4.7478,-4.7504,-4.7488,-4.7587,-4.7558,-4.7666,-4.7648,-4.784,-4.7806,-4.7827,-4.782,-4.7958,-4.7947,-4.8409,-4.8467,-4.8043,-4.8047,-4.805,0,-4.6639,-4.6786,-4.6743,-4.6842,-4.7002,-4.6953,-4.7113,-4.712,-4.7151,-4.7248,-4.7169,-4.7261,-4.721,-4.7298,-4.7273,-4.7424,-4.7443,-4.744,-4.7432,-4.7449,-4.745,-4.7483,-4.7465,-4.7407,-4.7404,-4.7402,-4.74,0,-4.6315,-4.6464,-4.6623,-4.6654,-4.6691,-4.6767,-4.6786,-4.6821,-4.6875,-4.6939,-4.6973,-4.7052,-4.7096,-4.7157,-4.7125,-4.7028,-4.7308,-4.7169,-4.7305,-4.7306,-4.7372,-4.7369,-4.7782,-4.7398,-4.7397,-4.7396,-4.7395,0,-4.6048,-4.6116,-4.635,-4.6379,-4.642,-4.6525,-4.66,-4.6682,-4.6725,-4.6716,-4.6767,-4.6712,-4.6841,-4.6705,-4.6882,-4.6766,-4.6813,-4.6821,-4.683,-4.6844,-4.6693,-4.6933,-4.7327,-4.7368,-4.685,-4.6846,-4.6841,0,-4.5684,-4.5914,-4.5874,-4.6097,-4.62,-4.6105,-4.6219,-4.626,-4.6258,-4.6343,-4.6339,-4.6438,-4.633,-4.6357,-4.6448,-4.6449,-4.66,-4.6427,-4.6552,-4.6557,-4.6547,-4.6907,-4.6975,-4.7243,-4.6783,-4.6789,-4.6793,0,-4.5401,-4.5447,-4.549,-4.5523,-4.5571,-4.5656,-4.5787,-4.5874,-4.5934,-4.5988,-4.6098,-4.6234,-4.6158,-4.6205,-4.6169,-4.6265,-4.6496,-4.6172,-4.6173,-4.6234,-4.6751,-4.6814,-4.6859,-4.645,-4.6457,-4.6463,-4.6747,0,-4.5007,-4.5119,-4.5233,-4.531,-4.5371,-4.5509,-4.5482,-4.5549,-4.5509,-4.5504,-4.5663,-4.5691,-4.578,-4.5823,-4.5785,-4.6015,-4.5973,-4.5892,-4.5761,-4.5996,-4.609,-4.6127,-4.5624,-4.562,-4.5616,-4.5613,0,0,-4.4666,-4.4827,-4.478,-4.4907,-4.4957,-4.4858,-4.5008,-4.5044,-4.5121,-4.5157,-4.5083,-4.5281,-4.5308,-4.5505,-4.5576,-4.5612,-4.565,-4.557,-4.5884,-4.5914,-4.5942,-4.6042,-4.6082,-4.5607,-4.5606,-4.5605,-4.5604,0,-4.4518,-4.4547,-4.4696,-4.4732,-4.4783,-4.4771,-4.4806,-4.484,-4.4845,-4.5001,-4.4919,-4.5011,-4.5172,-4.5211,-4.5252,-4.5544,-4.5478,-4.5573,-4.574,-4.585,-4.5885,-4.5916,-4.6021,-4.606,-4.5596,-4.5596,-4.5596,0,-4.4236,-4.4261,-4.433,-4.4438,-4.4471,-4.4579,-4.4434,-4.4554,-4.4634,-4.4522,-4.4679,-4.4692,-4.4741,-4.4931,-4.5015,-4.495,-4.5323,-4.52,-4.5221,-4.5231,-4.5337,-4.5379,-4.5416,-4.4926,-4.4923,-4.4921,0,0,-4.4111,-4.4216,-4.4229,-4.4404,-4.4431,-4.4415,-4.447,-4.4437,-4.4484,-4.4504,-4.4519,-4.4568,-4.466,-4.4722,-4.4808,-4.502,-4.5027,-4.5119,-4.5151,-4.5177,-4.5201,-4.5313,-4.5355,-4.4913,-4.4913,-4.4912,0,0,-4.4052,-4.4075,-4.4027,-4.4227,-4.4275,-4.43,-4.4408,-4.4349,-4.4424,-4.4406,-4.4354,-4.4365,-4.4542,-4.4558,-4.4448,-4.4761,-4.4631,-4.4657,-4.4745,-4.4785,-4.4816,-4.481,-4.4305,0,0,0,0,0,-4.3888,-4.4072,-4.4027,-4.4057,-4.4195,-4.4324,-4.4341,-4.4304,-4.4212,-4.4298,-4.4301,-4.4227,-4.4488,-4.439,-4.442,-4.4544,-4.4805,-4.4824,-4.4842,-4.5006,-4.5048,-4.5083,0,0,0,0,0,0,-4.3899,-4.3936,-4.4022,-4.4056,-4.4087,-4.4317,-4.4154,-4.4149,-4.4202,-4.4186,-4.4228,-4.4228,-4.4198,-4.4372,-4.44,-4.4518,-4.4296,-4.4812,-4.4829,-4.4843,-4.502,-4.5054,-4.5083,0,0,0,0,0,-4.3908,-4.3937,-4.4168,-4.4053,-4.408,-4.4074,-4.4147,-4.4141,-4.4182,-4.4188,-4.4185,-4.4149,-4.4203,-4.4223,-4.4388,-4.4506,-4.4276,-4.4287,-4.4823,-4.4836,-4.4847,-4.5037,0,0,0,0,0,0,-4.3915,-4.3933,-4.4172,-4.4179,-4.3982,-4.406,-4.4071,-4.4135,-4.418,-4.4179,-4.4105,-4.4091,-4.4208,-4.4223,-4.424,-4.4505,-4.426,-4.4271,-4.4278,-4.4833,-4.4843,-4.4852,0,0,0,0,0,0,-4.3917,-4.394,-4.4176,-4.4088,-4.4084,-4.4048,-4.4057,-4.4192,-4.4181,-4.4094,-4.4084,-4.4098,-4.4183,-4.4224,-4.4236,-4.4448,-4.4248,-4.4259,-4.4266,-4.427,-4.4841,-4.4849,0,0,0,0,0,0,-4.3926,-4.3945,-4.4085,-4.4083,-4.4079,-4.415,-4.4165,-4.4308,-4.4106,-4.4093,-4.4087,-4.4078,-4.4187,-4.4198,-4.4235,-4.4441,-4.4446,-4.4249,-4.4256,-4.4261,-4.4264,0,0,0,0,0,0,0,-4.3933,-4.3813,-4.4133,-4.4079,-4.4075,-4.424,-4.4242,-4.4244,-4.4104,-4.4096,-4.4089,-4.4082,-4.419,-4.4201,-4.4213,-4.4436,0,0,-4.4248,-4.4253,0,0,0,0,0,0,0,0,-4.3804,-4.3811,-4.4134,-4.4135,-4.4136,-4.424,-4.4242,-4.4243,-4.4103,-4.4097,-4.409,-4.4085,-4.4193,-4.4202,-4.4211,0,0,0,0,0,0,0,0,0,0,0,0,0,0,0,-4.4134,-4.4135,0,-4.4241,-4.4242,-4.4243,-4.4102,-4.4097,-4.4092,-4.4087,-4.4196,-4.4203,-4.4211,0,0,0,0,0,0,0,0,0,0,0,0,0,0,0,0,0,0,0,0,0,0,0,0,0,0,0,0,0,0,0,0,0,0,0,0,0,0,0,0,0,0,0,0,0,0,0,0,0,0,0,0,0,0,0,0,0,0,0,0,0,0,0,0,0,0,0,0,0]}],[{"header":{"parameterUnit":"kt","parameterCategory":2,"dx":1,"dy":1,"la1":30.253999710083008,"la2":30.299108505249023,"lo1":-89.0895004272461,"lo2":-89.04439544677734,"nx":28,"ny":28,"refTime":"2022-09-27T15:00:00:Z","depth":0,"parameterNumber":2,"parameterNumberName":"V-component_of_WINDS"},"data":[-18.8545,-18.8856,-18.8826,-18.9165,-18.9194,-18.9418,-18.9487,-18.9572,-18.9631,-18.989,-19.0031,-19.0027,-19.0067,-19.0225,-19.0372,-19.0365,-19.043,-19.0564,-19.0533,-18.9968,-18.9887,-18.981,-18.9736,-19.0579,-19.058,-19.1123,-19.1128,-19.1132,-18.8134,-18.8168,-18.8339,-18.8483,-18.8628,-18.8481,-18.858,-18.8709,-18.8912,-18.8985,-18.9123,-18.9346,-18.9515,-18.9509,-18.9664,-18.9803,-18.974,-18.9847,-18.9836,-18.9844,-18.9239,-18.9161,-18.9896,-18.9896,-18.9896,-18.9896,-18.9896,-18.9895,-18.7378,-18.7566,-18.7635,-18.7819,-18.7882,-18.7977,-18.8148,-18.814,-18.8302,-18.8465,-18.8391,-18.8616,-18.8679,-18.8847,-18.8893,-18.9065,-18.8938,-18.9043,-18.9069,-18.9097,-18.9135,-18.8357,-18.9089,-18.9086,-18.9084,-18.9082,-18.9081,0,-18.6814,-18.6777,-18.6937,-18.709,-18.7221,-18.7334,-18.7431,-18.7535,-18.7434,-18.7572,-18.7767,-18.7872,-18.8079,-18.8255,-18.839,-18.8415,-18.827,-18.8251,-18.8323,-18.8364,-18.8384,-18.8377,-18.7392,-18.8229,-18.8222,-18.8216,-18.8212,-18.8209,-18.605,-18.6272,-18.6327,-18.6444,-18.6489,-18.6679,-18.6783,-18.6677,-18.6793,-18.6892,-18.706,-18.7235,-18.737,-18.7683,-18.7662,-18.7815,-18.7745,-18.8069,-18.7766,-18.7797,-18.775,-18.7738,-18.7759,-18.813,-18.814,-18.8148,-18.8155,0,-18.5622,-18.5567,-18.59,-18.593,-18.5944,-18.6181,-18.6203,-18.6383,-18.6351,-18.6594,-18.6643,-18.6594,-18.6784,-18.6711,-18.6911,-18.6866,-18.7248,-18.7176,-18.7227,-18.7208,-18.7491,-18.7466,-18.8421,-18.8539,-18.7664,-18.7672,-18.7679,0,-18.4947,-18.5242,-18.5142,-18.5339,-18.5661,-18.5546,-18.5867,-18.5872,-18.5925,-18.6114,-18.5939,-18.612,-18.5996,-18.6165,-18.6099,-18.6398,-18.6435,-18.6418,-18.6397,-18.6435,-18.6437,-18.6491,-18.6451,-18.634,-18.6335,-18.6331,-18.6327,0,-18.4284,-18.4574,-18.4892,-18.4949,-18.5008,-18.5158,-18.5189,-18.5245,-18.5348,-18.5468,-18.5532,-18.5679,-18.576,-18.5874,-18.5789,-18.5587,-18.6152,-18.5855,-18.6134,-18.6137,-18.6263,-18.6256,-18.7121,-18.6321,-18.632,-18.6318,-18.6317,0,-18.3729,-18.3859,-18.4328,-18.4371,-18.4451,-18.4659,-18.4798,-18.4959,-18.5031,-18.5003,-18.5096,-18.4969,-18.5224,-18.4935,-18.5284,-18.5045,-18.5133,-18.514,-18.5158,-18.5176,-18.4855,-18.5354,-18.6184,-18.6268,-18.5193,-18.5184,-18.5175,0,-18.2985,-18.3442,-18.3347,-18.3794,-18.3994,-18.3785,-18.4012,-18.4081,-18.4064,-18.4227,-18.4204,-18.4391,-18.4161,-18.4208,-18.439,-18.4373,-18.4684,-18.4329,-18.4562,-18.4572,-18.4551,-18.5315,-18.5457,-18.6011,-18.5054,-18.5067,-18.5076,0,-18.24,-18.2471,-18.2558,-18.2616,-18.2692,-18.2858,-18.312,-18.3281,-18.3396,-18.3492,-18.3706,-18.3966,-18.3802,-18.3883,-18.3793,-18.3987,-18.447,-18.3784,-18.3784,-18.3911,-18.4987,-18.5121,-18.5215,-18.4367,-18.4381,-18.4393,-18.498,0,-18.1576,-18.1796,-18.2027,-18.2164,-18.228,-18.2555,-18.2478,-18.2609,-18.2513,-18.2487,-18.28,-18.2835,-18.2995,-18.308,-18.2986,-18.3455,-18.3364,-18.3187,-18.2899,-18.3401,-18.3593,-18.3671,-18.2621,-18.2612,-18.2604,-18.2598,0,0,-18.0877,-18.1191,-18.1077,-18.1328,-18.1419,-18.1196,-18.1496,-18.1557,-18.1687,-18.1753,-18.1593,-18.1965,-18.2,-18.2388,-18.2538,-18.2603,-18.2678,-18.2506,-18.3163,-18.3227,-18.3285,-18.3491,-18.3574,-18.2585,-18.2582,-18.2579,-18.2577,0,-18.056,-18.0607,-18.0907,-18.0966,-18.105,-18.1008,-18.1081,-18.1122,-18.1119,-18.1426,-18.1234,-18.1411,-18.1711,-18.1773,-18.1844,-18.2458,-18.2301,-18.2512,-18.2869,-18.309,-18.3164,-18.3228,-18.3446,-18.3526,-18.2558,-18.256,-18.256,0,-17.997,-18.0004,-18.014,-18.0338,-18.039,-18.06,-18.0281,-18.0517,-18.067,-18.0409,-18.0716,-18.0724,-18.0799,-18.1177,-18.1342,-18.12,-18.1962,-18.1707,-18.1752,-18.1768,-18.1978,-18.2066,-18.2145,-18.1108,-18.1104,-18.1099,0,0,-17.9706,-17.991,-17.991,-18.0264,-18.031,-18.0252,-18.0355,-18.0269,-18.0344,-18.0375,-18.0382,-18.0459,-18.063,-18.0747,-18.0904,-18.1329,-18.1334,-18.1532,-18.16,-18.1656,-18.1703,-18.1928,-18.2015,-18.1082,-18.1081,-18.1081,0,0,-17.9578,-17.9594,-17.9484,-17.9885,-17.9966,-17.9985,-18.0203,-18.0067,-18.0201,-18.0161,-18.0022,-18.0037,-18.0387,-18.0402,-18.0174,-18.0799,-18.0517,-18.057,-18.0777,-18.0863,-18.093,-18.0919,-17.9849,0,0,0,0,0,-17.9215,-17.9591,-17.9492,-17.9548,-17.9794,-18.0042,-18.0071,-17.9969,-17.9771,-17.9946,-17.993,-17.9755,-18.025,-18.0045,-18.01,-18.0356,-18.0852,-18.0893,-18.0931,-18.1299,-18.1388,-18.1464,0,0,0,0,0,0,-17.9236,-17.9305,-17.9481,-17.952,-17.9574,-18.0027,-17.967,-17.9652,-17.975,-17.9713,-17.9764,-17.9756,-17.967,-18.0009,-18.0061,-18.0306,-17.9831,-18.0868,-18.0903,-18.0934,-18.1329,-18.1403,-18.1466,0,0,0,0,0,-17.9252,-17.9307,-17.9731,-17.9513,-17.9561,-17.9514,-17.9655,-17.9637,-17.971,-17.9686,-17.9673,-17.9624,-17.968,-17.9716,-18.0039,-18.0285,-17.9794,-17.9814,-18.0891,-18.0918,-18.0942,-18.1365,0,0,0,0,0,0,-17.9264,-17.9291,-17.9737,-17.9748,-17.9363,-17.9486,-17.9502,-17.9625,-17.9674,-17.9666,-17.9537,-17.9507,-17.9692,-17.9717,-17.9746,-18.0284,-17.9765,-17.9785,-17.9797,-18.0912,-18.0933,-18.0952,0,0,0,0,0,0,-17.926,-17.9302,-17.9743,-17.956,-17.9548,-17.9461,-17.9476,-17.9733,-17.9678,-17.9522,-17.9498,-17.9523,-17.9647,-17.9721,-17.9742,-18.0149,-17.9742,-17.9761,-17.9774,-17.9783,-18.0929,-18.0946,0,0,0,0,0,0,-17.9275,-17.9311,-17.9556,-17.9547,-17.9536,-17.9643,-17.9686,-17.9944,-17.9526,-17.9523,-17.9485,-17.9466,-17.9656,-17.9674,-17.9741,-18.014,-18.0147,-17.9743,-17.9756,-17.9765,-17.9771,0,0,0,0,0,0,0,-17.9288,-17.9078,-17.9677,-17.9537,-17.9526,-17.9843,-17.9846,-17.9849,-17.9521,-17.9505,-17.9489,-17.9474,-17.9633,-17.9654,-17.9675,-18.0132,0,0,-17.9741,-17.975,0,0,0,0,0,0,0,0,-17.9061,-17.9074,-17.9678,-17.968,-17.9682,-17.9844,-17.9846,-17.9848,-17.9519,-17.9506,-17.9492,-17.948,-17.9639,-17.9656,-17.9673,0,0,0,0,0,0,0,0,0,0,0,0,0,0,0,-17.9678,-17.968,0,-17.9844,-17.9846,-17.9848,-17.9517,-17.9506,-17.9495,-17.9485,-17.9643,-17.9657,-17.9671,0,0,0,0,0,0,0,0,0,0,0,0,0,0,0,0,0,0,0,0,0,0,0,0,0,0,0,0,0,0,0,0,0,0,0,0,0,0,0,0,0,0,0,0,0,0,0,0,0,0,0,0,0,0,0,0,0,0,0,0,0,0,0,0,0,0,0,0,0]}]]]